Regional Weather Roundup
Issued by NWS

Home | Current Version | Previous Version | Text Only | Print | Product List | Glossary Off
Versions: 1 2 3 4 5 6 7 8 9 10 11 12 13 14 15 16 17 18 19 20 21 22 23 24 25 26 27 28 29 30 31 32 33 34 35 36 37 38 39 40 41 42 43 44 45 46 47 48

000
ASUS45 KTFX 030510
RWRMT
MONTANA REGIONAL WEATHER ROUNDUP
NATIONAL WEATHER SERVICE GREAT FALLS MT
1100 PM MDT THU JUL 02 2015

NOTE: "FAIR" INDICATES FEW OR NO CLOUDS BELOW 12000 FEET WITH NO
SIGNIFICANT WEATHER AND/OR OBSTRUCTIONS TO VISIBILITY.

MTZ001>007-043-030600-
WEST OF THE DIVIDE

CITY           SKY/WX    TMP DP  RH WIND       PRES   REMARKS
KALISPELL      CLEAR     68  54  60 CALM      29.95S
MISSOULA       CLEAR     74  47  38 N3        29.97R
BUTTE          CLEAR     73  42  32 W7        30.14S
MULLAN PASS    CLEAR     68  36  30 NW7       30.19S
DEER LODGE       N/A     68  48  49 W5        30.11S
EUREKA           N/A     72  48  43 CALM      29.95R
HAMILTON         N/A     68  54  60 SW3       30.00S
PLAINS           N/A     79  47  32 CALM      29.96R
RONAN            N/A     70  55  58 N3        30.01S
THOMPSON FALLS   N/A     74  45  35 NW1       29.99R
$$

MTZ008-052>055-030600-
SOUTHWEST MONTANA

CITY           SKY/WX    TMP DP  RH WIND       PRES   REMARKS
BOZEMAN        CLEAR     73  47  39 VRB3      30.08S
DILLON         CLEAR     69  46  43 NE6       30.10R
W YELLOWSTONE  CLEAR     57  43  58 CALM      30.23S
THREE FORKS      N/A     72  57  58 CALM      30.06S
$$

MTZ009-010-012-014-046-048-049-054-030600-
EAST SLOPES AND CENTRAL MONTANA

CITY           SKY/WX    TMP DP  RH WIND       PRES   REMARKS
CUT BANK       CLEAR     69  47  45 SE5       30.05S
GREAT FALLS    MOCLDY    74  49  41 E8        30.06R
MALMSTROM AFB  MOCLDY    71  52  51 E6        30.05S
HELENA         CLEAR     76  48  37 W8        30.03R
CONRAD           N/A     64  58  81 CALM      30.08S
$$

MTZ011-013-016-021-045-047-050-051-030600-
NORTH CENTRAL MONTANA

CITY           SKY/WX    TMP DP  RH WIND       PRES   REMARKS
HAVRE          CLEAR     67  54  63 NE7       30.01F
LEWISTOWN      MOCLDY    65  53  65 SE6       30.12F
CHINOOK          N/A     70  55  60 E5        30.03S
FORT BENTON      N/A     73  54  49 E9G17     30.03S
$$

MTZ017>020-022>027-061-062-030600-
NORTHEAST MONTANA

CITY           SKY/WX    TMP DP  RH WIND       PRES   REMARKS
GLASGOW        CLEAR     68  55  63 NE8       30.03S HAZE
JORDAN           N/A     65  55  70 CALM      30.06S
SIDNEY         CLEAR     66  57  72 CALM      30.02S
WOLF POINT     CLEAR     68  60  75 E3        30.03S HAZE
MALTA            N/A     65  54  67 CALM      30.00F
PLENTYWOOD       N/A     64  57  77 NW5       30.04R
POPLAR           N/A     66  61  82 N3        30.03S
SCOBEY           N/A     61  54  77 N2        30.03F
$$

MTZ028>42-056>058-030600-
SOUTHCENTRAL AND SOUTHEAST MONTANA

CITY           SKY/WX    TMP DP  RH WIND       PRES   REMARKS
BAKER          CLEAR     65  57  75 S3        30.07S HAZE
BILLINGS       CLEAR     72  51  47 NE5       30.11S
LIVINGSTON     CLEAR     72  50  45 E17       30.11S
MILES CITY     CLEAR     69  54  58 NW5       30.05S
EKALAKA          N/A     60  53  77 SE6       30.07F
FORSYTH          N/A     68  55  64 CALM      30.06F
LAUREL           N/A     69  48  46 CALM      30.09S
ROUNDUP          N/A     69  49  48 CALM      30.02S
$$

REGIONAL REPORTS...DAKOTAS

CITY           SKY/WX    TMP DP  RH WIND       PRES   REMARKS
WILLISTON      CLEAR     68  62  81 N3        30.02S
MINOT          CLOUDY    66  63  90 SW7       29.96F FOG
DICKINSON      CLEAR     64  59  83 E5        30.03S HAZE
BEACH          FAIR      63  63 100 S3        30.06F FOG
CROSBY         FAIR      63  63 100 NW6       30.01F FOG
BISMARCK       CLOUDY    67  63  87 SW5       29.98F FOG
GRAND FORKS    CLOUDY    68  66  93 W7        29.89R
FARGO          PTCLDY    66  55  67 S9        29.92F
BUFFALO SD       N/A     65  58  78 W6        30.02R
RAPID CITY     MOCLDY    63  58  83 N6        30.10S
$$

REGIONAL REPORTS...WYOMING/IDAHO/WASHINGTON

CITY           SKY/WX    TMP DP  RH WIND       PRES   REMARKS
GILLETTE       CLEAR     57  51  80 CALM      30.15F
SHERIDAN       PTCLDY    62  55  77 CALM      30.14R
BUFFALO WY     PTCLDY    63  53  70 NW8       30.20S
CODY           CLEAR     68  48  49 W5        30.19S
YELLOWSTONE LA   N/A     55  41  59 CALM      30.35R
IDAHO FALLS    CLEAR     74  51  44 E7        30.04R
SALMON         CLEAR     75  37  25 E3        30.00R
BOISE          CLEAR     89  42  19 CALM      29.88R
SPOKANE        PTCLDY    85  40  20 W5        29.92S
$$

REGIONAL REPORTS...ALBERTA

CITY           SKY/WX    TMP DP  RH WIND       PRES   REMARKS
EDMONTON       CLEAR     68  52  56 S5        29.90F
CALGARY        MOCLDY    70  59  68 S7        30.02F
LETHBRIDGE     MOCLDY    64  59  82 SE7       29.99F HAZE
MEDICINE HAT   CLEAR     72  57  60 SE6       29.98S
WATERTON GATE    N/A     59  55  88 SW6         N/A
MILK RIVER       N/A     66  50  55 E9          N/A
ONEFOUR          N/A     70  54  56 SE10        N/A
$$

REGIONAL REPORTS...SASKATCHEWAN

CITY           SKY/WX    TMP DP  RH WIND       PRES   REMARKS
SWIFT CURRENT  CLEAR     63  57  82 S8        30.02F
REGINA         PTCLDY    63  61  94 W2        30.00S SMOKE
SASKATOON      MOCLDY    64  57  77 SE5       29.97F
CYPRESS HILLS    N/A     61  54  77 SE7         N/A
VAL MARIE        N/A     57  52  82 E1          N/A
ROCKGLEN         N/A     63  57  82 W2          N/A
ASSINIBOIA       N/A     66  63  88 S5          N/A
$$


USA.gov is the U.S. government's official web portal to all federal, state and local government web resources and services.